Showing default

COSMOS 2091, 20736

Orbit data source: Space-Track

COSMOS 2091, 20736 is a payload satellite owned by UNKS (CIS) in LEO that was launched on Wed, 08 Aug 1990 UTC via a TSIKLON-3 launch vehicle from the Plesetsk Missile And Space Complex (PKMTR). Payload-class satellites include a variety of spacecraft equipped with specific instruments for various scientific and technological missions. These include communications satellites like Starlink; space stations such as the ISS; scientific satellites like the Hubble; Earth observation satellites from companies like Planet Labs, Umbra, and HawkEye 360; GPS; miniature CubeSats for education and research; and military/defense satellites.

Loading next visibility...
Identifier
20736, 1990-070B
Orbit
LEO
Last TLE update
11 hours ago
Origin
Manufacturer
NPO PM
Mission
Defense Communications
Bus & Motor
STRELA-3, Unknown motor
Mass
225 kg wet, 225 kg dry
Launch date (UTC)
1990-08-08 (35 years ago)
Launch vehicle
TSIKLON-3
Launch site
Plesetsk Missile And Space Complex (PKMTR)
Object type
Payload
Rocket body
Debris
Shape & HBR
Cyl, 1.6 m
Radar Cross Section
1.257 m², Large (>1 m²)

Expand to show TLE details & history

TLE from 11 hours ago
0 COSMOS 2091
1 20736U 90070B   25128.74450720  .00000003  00000-0 -42576-4 0  9993
2 20736  82.5797 226.3505 0002367 315.7581 163.6104 12.62547693601271
Epoch: 2025-05-08T17:52Z
Definitive object data (Epoch: 2025-05-08T17:52:05.422Z)
Latitude
59.87071°
Longitude
-101.38564°
Altitude
1,424.348 km
Speed
7.153 km/s
True Right ascension
02h 13m 47s
True Declination
59° 44' 02"
Sunlit
Object was in daylight at TLE epoch
Visualization TLE readout
Latitude
70.13489°
Longitude
112.24011°
Altitude
1,425.382 km
Speed
7.154 km/s
Apparent Right ascension
23h 00m 08s
Apparent Declination
40° 46' 49"
Sunlit
Object is in daylight
Visualization observer readout
Local Sidereal Time
13:10:10
Azimuth
24.076° NE
Elevation
-4.053°
Doppler factor
1
Orbital elements
Apogee altitude
1,411.61 km
Perigee altitude
1,407.923 km
Semi-major axis
7,787.904 km
Eccentricity
0.0002367
Inclination
82.5797°
RAAN
226.3505°
Arg. of periapsis
315.7581°
True anomaly
163.61805°
Mean anomaly
163.6104°
Eccentric anomaly
163.61423°
Mean motion
3.158 °/min
BSTAR
-0.000042576
Orbital period
114 mins
Loading maneuver chart data...
Loading SW <> Apogee altitude chart data...
Loading historical data...
Loading historical data...
Loading historical data...
Loading historical data...
Loading historical data...
Loading historical data...
Loading historical data...

COSMOS 2091 Visibility forecast

Observer location: undefined°, undefined°

Span
Click to sort rows by Start time (UTC) header in descending order
Start Az.
Max El. time (UTC)
Max El. Az.
Max El.
End time (UTC)
End Az.
15 mins2025-05-09 06:38:33.843Z164.225° S2025-05-09 06:45:33.843Z93.969° ESE39.912°2025-05-09 06:53:33.843Z16.061° NNE
12 mins2025-05-09 08:35:33.843Z239.394° WSW2025-05-09 08:40:33.843Z284.047° WNW26.23°2025-05-09 08:47:33.843Z345.956° N
10 mins2025-05-09 16:41:33.843Z26.278° NE2025-05-09 16:46:33.843Z69.309° E20.861°2025-05-09 16:51:33.843Z110.022° ESE
14 mins2025-05-09 18:35:33.843Z347.349° N2025-05-09 18:42:33.843Z237.713° WSW43.628°2025-05-09 18:49:33.843Z183.799° SSW
|